Location: Adaghas
(31.2259°N, 9.0496°W)
Time: 03:12:01
(UTC+00:00)

DMSP B5D2-2 - Pass Details

Date: 18 September 2020
Orbit: 790 x 806 km, 98.3° (Epoch: 23 October)

Event Time Altitude Azimuth Distance (km) Brightness Sun altitude
Rises 20:24:11 0° 11° (N) 3,323 7.4 -23.3°
Reaches altitude 10° 20:26:32 10° 10° (N) 2,389 6.6 -23.8°
Maximum altitude 20:31:49 82° 285° (WNW) 817 4.1 -24.8°
Drops below altitude 10° 20:37:04 10° 197° (SSW) 2,372 6.5 -25.9°
Sets 20:39:23 0° 196° (SSW) 3,297 7.3 -26.4°
